Probability
4 3 2 2 4 3 1 0 0 0 1 2 3 2 1 0 0 0 0 0 0 0 0 0 0 0 0 0 0 0 0 0 0 0 0 0 0 0
3 4 3 3 3 3 2 0 0 0 1 2 3 3 2 1 0 0 0 0 0 0 0 0 0 0 0 0 0 0 0 0 0 0 0 0 0 0
2 2 3 3 3 3 2 0 0 0 0 1 2 3 2 1 0 0 0 0 0 0 0 0 0 0 0 0 0 0 0 0 0 0 0 0 0 0
1 1 1 1 2 3 2 1 0 0 0 0 1 2 2 1 0 0 0 0 0 0 0 0 0 0 0 0 0 0 0 0 0 0 0 0 0 0
0 0 0 0 1 2 2 1 0 0 0 0 0 1 1 0 0 0 0 0 0 0 0 0 0 0 0 0 0 0 0 0 0 0 0 0 0 0
0 0 0 0 0 1 1 1 0 0 0 0 0 0 0 0 0 0 0 0 0 0 0 0 0 0 0 0 0 0 0 0 0 0 0 0 0 0
0 0 0 0 0 0 0 0 0 0 0 0 0 0 0 0 0 0 0 0 0 0 0 0 0 0 0 0 0 0 0 0 0 0 0 0 0 0
0 0 0 0 0 0 0 0 0 0 0 0 0 0 0 0 0 0 0 0 0 0 0 0 0 0 0 0 0 0 0 0 0 0 0 0 0 0
0 0 0 0 0 0 0 0 0 0 0 0 0 0 0 0 0 0 0 0 0 0 0 0 0 0 0 0 0 0 0 0 0 0 0 0 0 0
0 0 0 0 0 0 0 0 0 0 0 0 0 0 0 0 0 0 0 0 0 0 0 0 0 0 0 0 0 0 0 0 0 0 0 0 0 0
0 0 0 0 0 0 0 0 0 0 0 0 0 0 0 0 0 0 0 0 0 0 0 0 0 0 0 0 0 0 0 0 0 0 0 0 0 0
0 0 0 0 0 0 0 0 0 0 0 0 0 0 0 0 0 0 0 0 0 0 0 0 0 0 0 0 0 0 0 0 0 0 0 0 0 0
0 0 0 0 0 0 0 0 0 0 0 0 0 0 0 0 0 0 0 0 0 0 0 0 0 0 0 0 0 0 0 0 0 0 0 0 0 0
0 0 0 0 0 0 0 0 0 0 0 0 0 0 0 0 0 0 0 0 0 0 0 0 0 0 0 0 0 0 0 0 0 0 0 0 0 0
0 0 0 0 0 0 0 0 0 0 0 0 0 0 0 0 0 0 0 0 1 0 0 0 0 0 0 0 0 0 0 0 0 0 0 0 0 0
0 0 0 0 0 0 0 0 0 0 0 0 0 0 0 0 0 0 0 0 0 0 0 0 0 0 0 0 0 0 0 0 0 0 0 0 0 0
0 0 0 0 0 0 0 0 0 0 0 0 0 0 0 0 0 0 0 0 0 0 0 0 0 0 0 0 0 0 0 0 0 0 0 0 0 0
0 0 0 0 0 0 0 0 0 0 0 0 0 0 0 0 0 0 0 0 0 0 0 0 0 0 0 0 0 0 0 0 0 0 0 0 0 0
0 0 0 0 0 0 0 0 0 0 0 0 0 0 0 0 0 0 0 0 0 0 0 0 0 0 0 0 0 0 0 0 0 0 0 0 0 0
0 0 0 0 0 0 0 0 0 0 0 0 0 0 0 0 0 0 0 0 0 0 0 0 0 0 0 0 0 0 0 0 0 0 0 0 0 0
0 0 0 0 0 0 0 0 0 0 0 0 0 0 0 0 0 0 0 0 0 0 0 0 0 0 0 0 0 0 0 0 0 0 0 0 0 0
0 0 0 0 0 0 0 0 0 0 0 0 0 0 0 0 0 0 0 0 0 0 0 0 0 0 0 0 0 0 0 0 0 0 0 0 0 0
0 0 0 0 0 0 0 0 0 0 0 0 0 0 0 0 0 0 0 0 0 0 0 0 0 0 0 0 0 0 0 0 0 0 0 0 0 0
Wind_Speed
3 3 2 2 2 2 2 2 2 3 2 1 0 0 0 1 3 2 2 3 2 2 2 2 2 3 3 2 2 1 1 2 2 3 4 5 5 6
3 2 2 2 2 2 2 2 2 2 2 1 1 1 1 2 3 2 2 4 4 4 4 4 3 3 3 2 1 1 1 2 2 3 3 4 5 5
4 3 3 3 2 2 2 2 2 2 3 2 1 1 2 2 2 2 2 3 3 6 5 5 4 4 3 2 2 1 1 1 2 3 3 4 4 4
4 3 4 3 3 2 2 3 2 2 2 3 2 2 3 3 3 3 3 3 3 6 7 7 6 5 4 3 3 2 2 3 3 3 3 3 4 4
3 3 3 3 4 3 3 3 3 3 2 2 3 2 2 2 2 3 3 2 3 4 7 7 7 6 5 5 4 4 4 4 4 4 4 4 4 4
3 3 3 3 3 4 3 3 3 2 2 2 2 2 2 2 2 2 2 2 2 2 3 5 7 8 7 6 5 5 4 4 4 4 5 5 5 4
3 3 2 2 3 3 3 3 3 2 2 2 2 2 2 2 2 2 2 2 3 2 1 2 3 3 4 6 6 6 6 6 5 5 6 6 6 6
3 3 3 2 1 2 3 4 3 3 3 3 2 2 3 2 2 2 1 2 2 1 1 2 2 3 3 4 7 8 7 7 6 6 6 6 6 6
4 3 4 3 3 2 3 4 4 6 7 4 4 4 3 3 2 3 2 2 3 2 2 3 2 2 3 4 7 8 8 8 7 7 6 6 6 6
4 3 3 2 3 3 4 3 3 3 4 5 4 4 4 3 3 3 4 3 3 3 3 3 3 3 3 3 8 9 9 9 8 8 8 7 7 6
3 3 3 2 1 3 3 4 4 4 4 3 4 5 5 6 4 2 2 2 3 3 2 2 2 2 2 2 4 9 9 9 8 8 8 8 8 6
3 2 2 2 2 3 3 4 4 4 4 4 3 5 5 6 8 6 4 3 2 2 2 1 2 1 1 2 2 4 5 7 8 8 9 9 8 5
4 3 1 1 2 4 4 3 5 5 4 4 4 3 3 3 4 5 4 3 3 3 2 1 1 1 2 2 2 3 4 4 4 5 8 9 9 7
4 3 2 3 5 5 4 6 7 6 4 4 3 3 3 3 3 3 4 4 4 5 4 2 2 2 3 3 3 2 3 4 4 4 5 7 9 10
4 6 7 8 8 6 7 8 6 4 4 4 3 3 3 3 2 2 3 4 4 5 5 4 3 3 3 3 3 3 3 3 4 4 4 5 5 5
4 6 8 10 9 7 6 5 5 4 4 3 3 3 2 2 3 2 3 3 3 3 5 5 5 5 4 4 3 4 3 3 3 4 4 4 4 5
4 4 4 4 4 4 4 4 4 4 4 4 3 3 3 3 3 3 3 3 3 4 4 4 5 5 5 4 4 4 4 3 3 3 3 3 4 4
3 4 5 5 5 4 3 3 3 3 3 3 3 3 3 3 3 3 3 3 4 4 3 3 3 3 3 4 6 5 4 4 3 3 3 3 4 4
3 5 5 5 5 5 4 4 3 3 3 3 3 3 3 3 3 3 3 4 4 4 4 4 3 3 4 5 5 7 6 4 4 4 4 5 5 5
5 6 5 5 5 4 4 4 3 3 3 3 3 3 3 3 3 4 4 4 4 4 4 4 3 4 5 5 4 4 8 6 5 5 5 4 4 4
5 5 5 4 3 3 3 3 3 3 3 3 2 3 3 3 4 4 4 5 5 4 4 4 4 5 4 3 3 4 4 8 8 5 4 4 3 3
5 4 4 4 3 3 4 3 3 3 3 3 3 3 3 3 4 5 4 4 3 4 4 4 4 3 3 4 5 5 5 4 7 10 9 7 4 4
4 4 3 4 3 3 3 3 4 3 2 3 3 3 3 3 4 4 4 4 4 4 4 4 3 3 4 5 5 5 6 5 4 4 5 10 13 12
Wind_Direction
303 307 304 299 288 281 267 258 275 291 285 268 286 218 198 152 165 198 183 183 200 219 246 265 270 270 270 272 272 281 272 267 255 240 236 231 226 216
293 296 296 293 302 298 282 269 254 263 276 281 276 257 259 252 203 218 209 190 214 222 226 234 240 250 255 258 270 271 256 246 244 238 231 223 220 215
317 323 315 311 316 311 303 290 282 269 272 283 271 252 252 256 223 231 213 203 213 220 218 217 218 227 235 241 251 263 264 245 235 230 223 217 211 207
328 328 326 328 333 325 316 298 285 271 261 275 274 258 257 250 235 239 236 222 208 212 213 213 214 217 220 225 233 240 243 240 233 225 221 219 218 215
330 333 336 335 327 325 311 300 288 286 274 263 267 266 265 261 253 255 255 244 232 212 209 213 216 218 217 218 224 232 232 229 225 220 214 208 203 204
327 334 333 331 327 321 311 308 301 293 283 268 262 264 263 262 254 251 270 270 262 246 216 204 208 213 217 219 219 222 222 221 219 214 211 211 209 210
327 328 323 328 320 307 312 317 315 307 294 279 276 282 276 271 262 255 256 269 269 247 226 219 202 203 208 218 221 221 221 221 217 215 214 215 215 214
317 314 303 280 314 301 289 285 276 273 278 274 270 267 272 276 282 282 284 290 281 266 263 258 217 208 203 202 205 206 211 214 211 208 205 205 207 207
309 305 307 332 343 344 314 280 270 253 242 247 255 259 258 258 259 264 262 263 265 268 267 264 241 225 214 193 185 195 204 206 206 206 206 207 209 214
292 290 292 305 340 339 321 315 302 288 253 230 239 250 257 258 254 260 261 258 260 261 231 242 245 238 218 184 193 197 202 204 206 207 208 210 213 218
295 306 310 315 6 343 317 314 312 301 289 259 248 250 253 259 257 274 268 259 265 263 237 235 252 255 223 204 203 201 203 204 207 211 212 213 217 218
300 300 318 318 315 324 311 309 304 306 315 309 283 259 249 247 238 230 240 251 269 267 242 239 260 270 273 234 198 197 211 217 217 218 219 219 216 210
312 315 319 285 296 297 296 287 284 292 294 282 273 259 248 236 224 218 219 225 247 262 262 253 265 267 263 270 239 209 203 209 209 218 221 223 217 204
294 308 318 291 299 291 280 272 283 296 285 278 270 263 259 248 236 225 215 221 226 235 244 248 253 246 253 264 262 232 223 218 208 206 205 210 216 215
281 297 301 290 290 279 261 264 270 266 268 272 275 266 250 242 238 236 235 233 237 238 236 229 228 240 242 249 258 249 242 237 218 211 205 200 202 201
269 286 287 281 274 267 271 259 244 244 251 263 274 276 273 257 242 237 237 235 241 246 234 223 224 228 242 245 242 247 242 237 230 221 209 207 208 204
324 294 285 284 279 261 251 244 235 230 232 240 254 261 261 262 258 247 237 238 248 255 249 236 225 223 230 237 246 245 243 246 241 225 214 223 223 215
304 284 286 287 286 285 275 264 247 236 234 233 241 252 252 251 258 258 250 247 253 256 252 241 225 230 249 250 229 238 241 240 238 231 222 228 238 227
257 266 269 274 279 280 276 273 270 257 240 236 238 248 255 258 258 257 256 253 252 255 257 250 233 227 250 264 254 225 227 236 235 233 230 225 231 233
249 259 263 262 266 278 285 285 284 276 256 250 248 248 253 259 264 263 258 255 259 262 265 260 249 233 236 248 256 248 220 222 227 232 237 235 236 236
269 265 267 270 267 272 277 279 281 284 282 274 263 264 266 266 267 270 268 262 257 256 259 257 250 244 243 239 256 259 239 221 219 218 228 236 241 237
271 280 285 284 282 283 282 282 281 278 285 289 287 274 264 268 276 279 278 276 268 265 269 264 254 242 244 250 258 261 256 237 229 233 235 224 214 221
282 289 292 292 291 287 289 293 296 292 286 291 297 294 287 280 273 270 272 272 271 274 279 277 268 254 251 250 254 258 258 246 233 230 240 238 232 235